Weather History for KHEF - February, 2013

Change the Weather History Date:

Saturday, February 16, 2013

  Actual Average Record
Temperature  
Mean Temperature 34 °F -  
Max Temperature 39 °F 46 °F 66 °F (2006)
Min Temperature 28 °F 25 °F 6 °F (2007)
Degree Days  
Heating Degree Days 30    
Moisture  
Dew Point 29 °F    
Average Humidity 81    
Maximum Humidity 100    
Minimum Humidity 52    
Precipitation  
Precipitation 0.01 in - - ()
Sea Level Pressure  
Sea Level Pressure 29.94 in    
Wind  
Wind Speed 4 mph (NNW)    
Max Wind Speed 18 mph    
Max Gust Speed 25 mph    
Visibility 8 miles    
Events      
Averages and records for this station are not official NWS values.
T = Trace of Precipitation, MM = Missing Value Source: NWS Daily Summary

Daily Weather History Graph

Daily Weather History Graph

Search for Another Location

Airport or City:

Trip Planner

Search our weather history database for the weather conditions in past years. The results will help you decide how hot, cold, wet, or windy it might be!

Date:

Astronomy

Feb. 16, 2013 Rise Set
Actual Time 6:59 AM EST 5:49 PM EST
Civil Twilight 6:32 AM EST 6:16 PM EST
Nautical Twilight 6:01 AM EST 6:47 PM EST
Astronomical Twilight 5:30 AM EST 7:18 PM EST
Moon 10:15 AM EST (2/16) No Moon Set
Length of Visible Light 11h 44m
Length of Day
10h 49m
Waxing Crescent, 39% of the Moon is Illuminated
Feb 16
Waxing Crescent
Feb 17
First Quarter
Feb 25
Full
Mar 4
Last Quarter
Mar 11
New

Hourly Weather History & Observations

Time (EST) Temp. Windchill Dew Point Humidity Pressure Visibility Wind Dir Wind Speed Gust Speed Precip Events Conditions
12:15 AM 37.4 °F - 35.6 °F 93% 30.01 in 10.0 mi Calm Calm - N/A   Overcast
12:35 AM 37.4 °F - 35.6 °F 93% 30.02 in 10.0 mi Calm Calm - N/A   Mostly Cloudy
12:55 AM 35.6 °F - 33.8 °F 93% 30.01 in 10.0 mi Calm Calm - N/A   Scattered Clouds
1:15 AM 35.6 °F - 33.8 °F 93% 30.01 in 10.0 mi Calm Calm - N/A   Mostly Cloudy
1:35 AM 35.6 °F 32.8 °F 35.6 °F 100% 30.01 in 5.0 mi SSE 3.5 mph - N/A   Overcast
1:55 AM 33.8 °F - 33.8 °F 100% 30.01 in 3.0 mi Calm Calm - N/A   Overcast
2:15 AM 35.6 °F - 35.6 °F 100% 30.01 in 6.0 mi Calm Calm - N/A   Overcast
2:35 AM 35.6 °F - 35.6 °F 100% 29.99 in 7.0 mi Calm Calm - N/A   Overcast
2:55 AM 35.6 °F - 35.6 °F 100% 30.00 in 5.0 mi Calm Calm - N/A   Overcast
3:15 AM 35.6 °F - 35.6 °F 100% 29.98 in 7.0 mi Calm Calm - N/A   Overcast
3:35 AM 35.6 °F 32.8 °F 35.6 °F 100% 29.98 in 8.0 mi West 3.5 mph - N/A   Overcast
3:55 AM 35.6 °F - 35.6 °F 100% 29.98 in 7.0 mi Calm Calm - N/A   Overcast
4:15 AM 35.6 °F - 33.8 °F 93% 29.97 in 5.0 mi Calm Calm - N/A   Overcast
4:35 AM 35.6 °F - 33.8 °F 93% 29.97 in 4.0 mi Calm Calm - N/A   Mostly Cloudy
4:55 AM 33.8 °F - 33.8 °F 100% 29.97 in 2.0 mi Calm Calm - N/A   Scattered Clouds
5:15 AM 33.8 °F - 33.8 °F 100% 29.97 in 0.8 mi Calm Calm - N/A   Unknown
5:35 AM 33.8 °F - 33.8 °F 100% 29.98 in 0.8 mi Calm Calm - N/A   Mostly Cloudy
5:55 AM 33.8 °F - 33.8 °F 100% 29.98 in 3.0 mi Calm Calm - N/A   Mostly Cloudy
6:15 AM 33.8 °F 30.8 °F 32.0 °F 93% 29.99 in 1.8 mi South 3.5 mph - N/A   Overcast
6:35 AM 33.8 °F - 33.8 °F 100% 29.98 in 1.8 mi Calm Calm - N/A   Overcast
6:55 AM 33.8 °F - 32.0 °F 93% 29.98 in 1.5 mi Calm Calm - N/A   Overcast
7:15 AM 33.8 °F - 33.8 °F 100% 29.98 in 2.0 mi Calm Calm - N/A   Overcast
7:35 AM 33.8 °F - 33.8 °F 100% 29.99 in 2.5 mi Calm Calm - N/A   Mostly Cloudy
7:55 AM 33.8 °F 30.8 °F 33.8 °F 100% 29.98 in 7.0 mi North 3.5 mph - N/A   Mostly Cloudy
8:55 AM 37.4 °F 30.8 °F 37.4 °F 100% 29.97 in 10.0 mi North 9.2 mph - N/A   Clear
9:50 AM 37.4 °F 29.3 °F 37.4 °F 100% 29.96 in 10.0 mi North 12.7 mph 17.3 mph N/A   Scattered Clouds
10:50 AM 39.2 °F 30.8 °F 37.4 °F 93% 29.96 in 10.0 mi North 15.0 mph - N/A   Mostly Cloudy
11:50 AM 39.2 °F 31.2 °F 37.4 °F 93% 29.94 in 10.0 mi WNW 13.8 mph - N/A   Mostly Cloudy
12:50 PM 39.2 °F 32.0 °F 35.6 °F 87% 29.91 in 10.0 mi North 11.5 mph - N/A   Mostly Cloudy
2:50 PM 37.4 °F 31.4 °F 35.6 °F 93% 29.88 in 10.0 mi North 8.1 mph - N/A   Overcast
5:45 PM 35.6 °F 28.0 °F 23.0 °F 60% 29.88 in 10.0 mi North 10.4 mph - N/A   Overcast
5:55 PM 35.6 °F 28.0 °F 23.0 °F 60% 29.88 in 10.0 mi NNW 10.4 mph - N/A   Overcast
6:15 PM 35.6 °F 27.1 °F 23.0 °F 60% 29.88 in 10.0 mi North 12.7 mph 17.3 mph N/A   Overcast
6:35 PM 35.6 °F 26.6 °F 21.2 °F 56% 29.88 in 10.0 mi North 13.8 mph 19.6 mph N/A   Overcast
6:55 PM 35.6 °F 26.6 °F 21.2 °F 56% 29.88 in 10.0 mi NNW 13.8 mph - N/A   Overcast
7:15 PM 33.8 °F 25.8 °F 21.2 °F 60% 29.89 in 10.0 mi NNW 10.4 mph - N/A   Overcast
7:35 PM 33.8 °F 25.3 °F 21.2 °F 60% 29.89 in 10.0 mi North 11.5 mph 17.3 mph N/A   Overcast
7:55 PM 33.8 °F 24.8 °F 21.2 °F 60% 29.88 in 10.0 mi North 12.7 mph 16.1 mph N/A   Overcast
8:15 PM 33.8 °F 26.4 °F 21.2 °F 60% 29.88 in 10.0 mi NNW 9.2 mph - N/A   Overcast
8:35 PM 33.8 °F 23.9 °F 17.6 °F 52% 29.88 in 10.0 mi NNW 15.0 mph 25.3 mph N/A   Overcast
8:55 PM 33.8 °F 24.3 °F 17.6 °F 52% 29.88 in 10.0 mi NNW 13.8 mph 18.4 mph N/A   Overcast
9:15 PM 33.8 °F 24.8 °F 17.6 °F 52% 29.88 in 10.0 mi NNW 12.7 mph 19.6 mph N/A   Overcast
9:35 PM 33.8 °F 23.9 °F 17.6 °F 52% 29.88 in 10.0 mi NNW 15.0 mph - N/A   Overcast
9:55 PM 33.8 °F 25.3 °F 17.6 °F 52% 29.87 in 10.0 mi NNW 11.5 mph - N/A   Overcast
10:15 PM 32.0 °F 23.6 °F 17.6 °F 55% 29.88 in 10.0 mi NNW 10.4 mph 17.3 mph N/A   Scattered Clouds
10:35 PM 32.0 °F 23.0 °F 19.4 °F 60% 29.88 in 10.0 mi NNW 11.5 mph 20.7 mph N/A   Clear
10:55 PM 30.2 °F 18.5 °F 17.6 °F 60% 29.87 in 10.0 mi NNW 17.3 mph 23.0 mph N/A   Clear
11:15 PM 30.2 °F 18.1 °F 17.6 °F 60% 29.87 in 10.0 mi NNW 18.4 mph 25.3 mph N/A   Clear
11:35 PM 30.2 °F 20.8 °F 17.6 °F 60% 29.86 in 10.0 mi NW 11.5 mph - N/A   Clear
11:55 PM 28.4 °F 19.1 °F 17.6 °F 64% 29.86 in 10.0 mi NNW 10.4 mph - N/A   Clear